Waarnemingen

Advertentie
Mijn weer
Nikkaluokta, Zweden (2036): temperatuur & dauwpunt: 13.11.2017 20:00:00 - 19.11.2017 20:00:00 (CET)Nikkaluokta, Zweden (2036): windsnelheid & windstoten: 13.11.2017 20:00:00 - 19.11.2017 20:00:00 (CET)Nikkaluokta, Zweden (2036): windrichting: 13.11.2017 20:00:00 - 19.11.2017 20:00:00 (CET)Nikkaluokta, Zweden (2036): luchtdruk: 13.11.2017 20:00:00 - 19.11.2017 20:00:00 (CET)Nikkaluokta, Zweden (2036): zicht: 13.11.2017 20:00:00 - 19.11.2017 20:00:00 (CET)Nikkaluokta, Zweden (2036): neerslag: 13.11.2017 20:00:00 - 19.11.2017 20:00:00 (CET)
Datum & Tijd tt [°C] td [°C] ff [km/u] ff [kn] fx [km/u] fx [kn] dd ppp [hPa] vv [km] rr [mm]
19.11.2017 20:00:00 -8,8 -10,0 9 5 13 7 WNW 1011,3 38 0,0
19.11.2017 19:00:00 -8,3 -9,4 2 1 5 3 WZW 1011,0 11 0,3
19.11.2017 18:00:00 -8,5 -9,6 4 2 8 4 WNW 1010,7 10 0,0
19.11.2017 17:00:00 -8,7 -9,9 5 3 13 7 W 1010,7 29 0,0
19.11.2017 16:00:00 -9,0 -10,2 8 4 11 6 NW 1010,3 44 0,0
19.11.2017 15:00:00 -9,2 -10,3 3 2 7 4 WNW 1010,1 28 0,0
19.11.2017 14:00:00 -8,9 -10,1 2 1 6 3 ZZO 1009,9 35 0,1
19.11.2017 13:00:00 -8,5 -9,7 3 2 9 5 NNO 1009,3 37 0,0
19.11.2017 12:00:00 -8,3 -9,5 5 3 14 8 NNO 1009,0 50 0,0
19.11.2017 11:00:00 -8,2 -9,3 9 5 14 7 WZW 1008,9 49 0,0
19.11.2017 10:00:00 -8,2 -9,3 2 1 9 5 WNW 1008,4 45 0,0
19.11.2017 09:00:00 -8,1 -9,3 5 3 13 7 WZW 1008,0 34 0,0
19.11.2017 08:00:00 -8,0 -9,1 6 3 14 8 W 1007,3 44 0,0
19.11.2017 07:00:00 -8,7 -9,8 5 3 9 5 WNW 1007,0 30 0,0
19.11.2017 06:00:00 -7,9 -9,0 4 2 14 8 Z 1006,7 6 0,1
19.11.2017 05:00:00 -8,1 -9,0 3 2 6 3 WZW 1006,4 2,1 0,1
19.11.2017 04:00:00 -8,3 -9,5 2 1 9 5 O 1005,9 48 0,0
19.11.2017 03:00:00 -7,7 -8,9 4 2 12 6 ZO 1005,6 44 0,0
19.11.2017 02:00:00 -7,3 -8,5 8 5 13 7 WNW 1005,1 46 0,0
19.11.2017 01:00:00 -7,4 -8,6 7 4 14 7 W 1005,1 43 0,0
19.11.2017 00:00:00 -7,8 -8,9 7 4 13 7 W 1005,1 24 0,0
18.11.2017 23:00:00 -8,5 -9,6 4 2 6 3 WZW 1004,9 18 0,0
18.11.2017 22:00:00 -8,2 -9,4 6 3 13 7 O 1004,5 3,3 0,0
18.11.2017 21:00:00 -8,0 -9,3 9 5 16 9 W 1003,8 46 0,0
18.11.2017 20:00:00 -7,8 -9,2 6 3 16 8 WNW 1003,4 50 0,0
18.11.2017 19:00:00 -8,1 -9,3 5 3 15 8 W 1003,1 34 0,0
18.11.2017 18:00:00 -8,3 -9,4 9 5 16 9 W 1002,7 37 0,0
18.11.2017 17:00:00 -9,9 -11,1 8 4 12 7 WNW 1002,8 11 0,0
18.11.2017 16:00:00 -10,8 -12,1 1 1 7 4 W 1003,1 7 0,0
18.11.2017 15:00:00 -11,1 -12,4 4 2 11 6 NW 1002,7 2,6 0,1
18.11.2017 14:00:00 -11,5 -12,8 5 3 10 6 NW 1002,3 2,7 0,0
18.11.2017 13:00:00 -11,9 -13,1 6 3 11 6 W 1002,1 2,5 0,0
18.11.2017 12:00:00 -12,3 -13,6 5 3 10 5 W 1001,8 50 0,0
18.11.2017 11:00:00 -13,8 -15,4 3 2 9 5 WNW 1001,6 50 0,0
18.11.2017 10:00:00 -14,5 -15,9 6 3 8 5 WNW 1001,2 50 0,0
18.11.2017 09:00:00 -16,5 -18,4 4 2 7 4 WNW 1000,5 43 0,0
18.11.2017 08:00:00 -15,6 -17,5 3 2 9 5 O 999,8 50 0,0
18.11.2017 07:00:00 -13,1 -14,8 2 1 8 5 ONO 998,8 50 0,1
18.11.2017 06:00:00 -10,5 -11,7 6 3 11 6 W 998,1 6 0,0
18.11.2017 05:00:00 -10,7 -12,0 4 2 5 3 NW 997,8 3,7 0,1
18.11.2017 04:00:00 -9,2 -10,4 3 2 7 4 ZW 997,4 6 0,1
18.11.2017 03:00:00 -8,7 -9,8 3 2 4 2 ZZW 997,2 11 0,0
18.11.2017 02:00:00 -8,9 -10,0 3 2 6 4 ZO 996,8 17 0,0
18.11.2017 01:00:00 -9,1 -10,2 4 2 9 5 O 996,7 9 0,0
18.11.2017 00:00:00 -8,9 -10,0 3 2 6 3 OZO 996,4 39 0,0
17.11.2017 23:00:00 -9,0 -10,1 1 1 5 3 ZZO 996,4 9 0,1
17.11.2017 22:00:00 -9,0 -10,1 3 2 5 3 O 996,3 4,6 0,3
17.11.2017 21:00:00 -8,6 -9,7 1 1 3 2 W 996,0 1,6 0,2
17.11.2017 20:00:00 -8,5 -9,6 1 0 5 3 ZZO 995,8 1,7 0,4
17.11.2017 19:00:00 -8,6 -9,7 1 1 4 2 NW 995,7 2,0 0,6
17.11.2017 18:00:00 -8,6 -9,7 1 1 3 2 NW 995,8 2,2 0,7
17.11.2017 17:00:00 -8,6 -9,7 0 0 2 1 ZZO 996,0 1,5 0,5
17.11.2017 16:00:00 -8,7 -9,8 1 1 5 3 NNO 996,1 1,8 0,7
17.11.2017 15:00:00 -8,6 -9,7 1 1 5 3 O 996,1 1,2 0,6
17.11.2017 14:00:00 -8,6 -9,7 2 1 3 2 O 996,1 1,2 0,8
17.11.2017 13:00:00 -8,5 -9,6 2 1 9 5 O 996,6 1,7 0,5
17.11.2017 12:00:00 -8,5 -9,6 5 3 13 7 ONO 997,1 4,2 0,3
17.11.2017 11:00:00 -8,4 -9,5 5 3 10 6 O 997,1 2,9 0,4
17.11.2017 10:00:00 -8,4 -9,3 2 1 14 7 OZO 997,5 2,5 0,4
17.11.2017 09:00:00 -8,5 -9,6 7 4 17 9 O 997,8 2,0 0,4
17.11.2017 08:00:00 -8,5 -9,4 4 2 16 9 OZO 998,3 8 0,4
17.11.2017 07:00:00 -8,4 -9,3 9 5 25 13 O 998,8 - 0,0
17.11.2017 06:00:00 -8,1 -8,9 11 6 21 11 O 999,4 1,5 0,0
17.11.2017 05:00:00 -8,1 -8,9 6 3 19 10 O 1000,0 1,9 0,0
17.11.2017 04:00:00 -8,1 -8,9 10 6 17 9 O 1000,7 1,1 0,0
17.11.2017 03:00:00 -7,8 -8,6 4 2 8 5 ZO 1001,1 2,3 0,0
17.11.2017 02:00:00 -8,1 -8,8 4 2 16 8 ZO 1001,7 1,0 0,0
17.11.2017 01:00:00 -8,3 -9,2 7 4 20 11 OZO 1002,4 15 0,0
17.11.2017 00:00:00 -7,4 -8,2 6 3 12 7 O 1002,9 50 0,0
16.11.2017 23:00:00 -7,8 -8,7 4 2 11 6 NW 1003,4 50 0,0
16.11.2017 22:00:00 -7,9 -8,7 5 3 9 5 NW 1004,1 50 0,0
16.11.2017 21:00:00 -8,2 -9,0 3 2 8 5 WNW 1004,8 7 0,0
16.11.2017 20:00:00 -9,8 -10,4 4 2 10 5 NW 1005,4 0,5 0,0
16.11.2017 19:00:00 -11,1 -12,1 3 2 9 5 ZZW 1005,7 8 0,0
16.11.2017 18:00:00 -8,8 -9,6 6 4 13 7 Z 1005,5 1,9 0,0
16.11.2017 17:00:00 -11,4 -12,8 2 1 11 6 N 1006,2 50 0,0
16.11.2017 16:00:00 -8,8 -9,5 8 4 16 9 Z 1006,1 50 0,0
16.11.2017 15:00:00 -10,0 -11,1 3 1 11 6 ZZW 1005,7 50 0,0
16.11.2017 14:00:00 -7,6 -8,8 8 5 18 10 ONO 1005,2 50 0,0
16.11.2017 13:00:00 -6,0 -6,8 5 3 10 6 O 1004,7 50 0,0
16.11.2017 12:00:00 -3,6 -4,3 5 3 17 9 W 1004,3 11 0,1
16.11.2017 11:00:00 -2,6 -4,5 13 7 32 17 W 1003,1 6 0,0
16.11.2017 10:00:00 -6,8 -7,9 5 3 21 11 Z 1003,1 19 0,1
16.11.2017 09:00:00 -8,2 -9,3 3 2 23 12 ZZO 1002,8 3,1 0,0
16.11.2017 08:00:00 -8,6 -9,9 4 2 15 8 ONO 1002,9 9 0,0
16.11.2017 07:00:00 -10,4 -11,7 6 3 19 11 ZO 1003,3 50 0,0
16.11.2017 06:00:00 -13,7 -15,3 5 3 16 8 OZO 1004,0 50 0,0
16.11.2017 05:00:00 -13,0 -14,3 5 3 13 7 NNO 1004,6 2,4 0,1
16.11.2017 04:00:00 -15,3 -17,1 4 2 13 7 NW 1005,0 50 0,0
16.11.2017 03:00:00 -16,9 -18,8 5 3 17 9 ZO 1005,0 50 0,0
16.11.2017 02:00:00 -18,5 -20,5 6 3 12 6 O 1005,1 50 0,0
16.11.2017 01:00:00 -20,2 -22,5 3 2 12 7 NNW 1005,0 50 0,0
16.11.2017 00:00:00 -21,2 -23,6 3 2 10 5 W 1005,2 50 0,0
15.11.2017 23:00:00 -21,5 -24,0 3 2 7 4 NW 1004,8 50 0,0
15.11.2017 22:00:00 -21,2 -23,6 4 2 8 4 W 1004,3 50 0,0
15.11.2017 21:00:00 -20,5 -23,0 4 2 10 6 WNW 1003,7 50 0,0
15.11.2017 20:00:00 -20,7 -23,0 7 4 9 5 W 1003,1 50 0,0
15.11.2017 19:00:00 -20,3 -22,7 5 3 9 5 NW 1002,8 43 0,0
15.11.2017 18:00:00 -19,8 -22,1 5 3 11 6 O 1002,3 50 0,0
15.11.2017 17:00:00 -19,5 -21,8 4 2 9 5 O 1001,8 50 0,0
15.11.2017 16:00:00 -19,0 -21,3 7 4 9 5 NW 1001,4 50 0,0
15.11.2017 15:00:00 -18,2 -20,4 3 2 8 4 NNW 1001,3 50 0,0
15.11.2017 14:00:00 -16,3 -18,2 3 1 10 5 ZO 1000,9 50 0,0
15.11.2017 13:00:00 -14,4 -16,5 3 1 6 3 ZZO 1000,4 50 0,0
15.11.2017 12:00:00 -12,4 -14,3 3 2 8 4 WNW 1000,5 50 0,0
15.11.2017 11:00:00 -12,7 -14,4 4 2 9 5 NW 1000,3 50 0,0
15.11.2017 10:00:00 -14,4 -15,9 2 1 6 4 ZO 1000,5 50 0,0
15.11.2017 09:00:00 -16,8 -18,7 4 2 8 4 Z 1000,7 50 0,0
15.11.2017 08:00:00 -17,5 -19,7 4 2 10 6 Z 1000,5 50 0,0
15.11.2017 07:00:00 -16,7 -18,5 5 3 11 6 WZW 1000,3 50 0,0
15.11.2017 06:00:00 -17,8 -19,7 6 4 9 5 WNW 1000,7 50 0,0
15.11.2017 05:00:00 -18,5 -20,5 3 2 8 4 N 1001,1 50 0,0
15.11.2017 04:00:00 -19,2 -21,5 3 1 9 5 WNW 1001,5 50 0,0
15.11.2017 03:00:00 -20,0 -22,1 4 2 8 5 OZO 1001,9 50 0,0
15.11.2017 02:00:00 -21,1 -23,4 6 3 8 4 NW 1002,4 50 0,0
15.11.2017 01:00:00 -20,7 -22,7 3 1 7 4 NNW 1002,5 50 0,0
15.11.2017 00:00:00 -21,4 -23,9 3 2 7 4 O 1002,5 50 0,0
14.11.2017 23:00:00 -20,4 -22,7 4 2 7 4 ZO 1002,4 50 0,0
14.11.2017 22:00:00 -19,1 -21,3 3 2 6 4 NNO 1002,3 50 0,0
14.11.2017 21:00:00 -15,4 -17,1 8 4 15 8 WNW 1001,9 50 0,0
14.11.2017 20:00:00 -16,4 -18,1 9 5 13 7 WNW 1002,1 50 0,0
14.11.2017 19:00:00 -16,8 -19,6 8 5 15 8 W 1002,0 50 0,0
14.11.2017 18:00:00 -12,8 -14,8 9 5 16 9 WZW 1001,6 50 0,0
14.11.2017 17:00:00 -12,7 -14,3 12 7 17 9 WZW 1001,6 50 0,0
14.11.2017 16:00:00 -13,8 -15,8 9 5 15 8 WZW 1001,7 50 0,0
14.11.2017 15:00:00 -11,7 -13,9 10 5 16 9 W 1001,3 50 0,0
14.11.2017 14:00:00 -11,3 -13,2 8 5 15 8 WZW 1001,2 50 0,0
14.11.2017 13:00:00 -12,6 -14,3 6 4 15 8 WZW 1001,4 50 0,0
14.11.2017 12:00:00 -12,4 -14,3 8 5 14 7 WZW 1001,3 50 0,0
14.11.2017 11:00:00 -9,5 -11,1 10 5 19 11 ZW 1001,0 50 0,0
14.11.2017 10:00:00 -7,9 -9,7 14 8 20 11 WZW 1000,7 50 0,0
14.11.2017 09:00:00 -10,1 -11,1 9 5 16 9 W 1000,9 50 0,0
14.11.2017 08:00:00 -11,3 -12,5 7 4 13 7 WZW 1001,0 50 0,0
14.11.2017 07:00:00 -11,7 -12,9 4 2 15 8 WNW 1001,2 50 0,0
14.11.2017 06:00:00 -14,0 -15,3 10 5 14 8 WZW 1001,6 50 0,0
14.11.2017 05:00:00 -15,6 -17,5 3 2 8 5 W 1002,0 50 0,0
14.11.2017 04:00:00 -14,5 -16,2 5 3 10 5 Z 1001,9 50 0,0
14.11.2017 03:00:00 -13,4 -15,1 3 2 13 7 W 1001,8 50 0,0
14.11.2017 02:00:00 -12,5 -14,1 6 4 10 6 WZW 1001,7 50 0,0
14.11.2017 01:00:00 -11,6 -13,2 6 3 13 7 O 1001,8 50 0,0
14.11.2017 00:00:00 -10,1 -11,4 4 2 10 6 O 1001,7 50 0,0
13.11.2017 23:00:00 -10,9 -12,2 3 2 8 4 WNW 1001,8 50 0,0
13.11.2017 22:00:00 -12,8 -14,2 3 2 10 6 ZW 1002,5 10 0,0
13.11.2017 21:00:00 -13,1 -14,7 3 2 8 5 WNW 1002,4 49 0,0
13.11.2017 20:00:00 -15,4 -17,2 2 1 9 5 NW 1003,0 46 0,0

tt = temperatuur
td = dauwpunt
ff = windsnelheid
fx = windstoten
dd = windrichting
ppp = luchtdruk
vv = zicht
rr = neerslag

Weerstations in de omgeving